Weather Roundup
Issued by NWS Corpus Christi, TX

Home | Current Version | Previous Version | Text Only | Print | Product List | Glossary On
Versions: 1 2 3 4 5 6 7 8 9 10 11 12 13 14 15 16 17 18 19 20 21 22 23 24 25 26 27 28 29 30 31 32 33 34 35 36 37 38 39 40 41 42 43 44 45 46 47 48 49 50
000
ASUS44 KCRP 251710
HRRCRP

SOUTH TEXAS REGIONAL WEATHER ROUNDUP
NATIONAL WEATHER SERVICE CORPUS CHRISTI TX
1100 AM CST SUN JAN 25 2015


TXZ229>244-251800-
...CORPUS CHRISTI AREA OBSERVATIONS...

CITY           SKY/WX    TMP DP  RH WIND       PRES   REMARKS
CORPUS CHRISTI PTSUNNY   62  50  64 SW12      30.14R
NAS CORPUS CHR SUNNY     62  44  51 W10       30.15R
ROCKPORT       MOSUNNY   62  42  47 W8        30.13R
KINGSVILLE NAS MOSUNNY   66  47  50 SW9       30.17R
ALICE          SUNNY     69  39  33 W8        30.13R
FALFURRIAS     SUNNY     65  39  38 SW9       30.17R
$$

...VICTORIA AREA OBSERVATIONS...

CITY           SKY/WX    TMP DP  RH WIND       PRES   REMARKS
VICTORIA       SUNNY     63  39  41 W15       30.10S
BEEVILLE       FAIR      61  40  45 W13       30.13R
PLEASANTON     SUNNY     63  33  32 W15       30.13S
SAN ANTONIO    MOSUNNY   64  36  35 N10       30.11S
$$

...LAREDO AREA OBSERVATIONS...

CITY           SKY/WX    TMP DP  RH WIND       PRES   REMARKS
LAREDO         SUNNY    N/A N/A N/A SW7       30.23R
COTULLA        MOSUNNY   60  38  43 NW7       30.17R
DEL RIO        PTSUNNY   60  32  34 NW10G20   30.19R
MCALLEN        PTSUNNY   60  45  57 CALM      30.21R
HEBBRONVILLE   SUNNY     65  39  39 SW9       30.19R
$$

...OTHER TEXAS OBSERVATIONS...

CITY           SKY/WX    TMP DP  RH WIND       PRES   REMARKS
BROWNSVILLE    MOSUNNY   63  48  58 S14       30.19R
HOUSTON        MOSUNNY   61  39  44 VRB7      30.05R
COL. STATION   SUNNY     58  40  51 NW15      30.06R
AUSTIN         MOSUNNY   61  41  47 NW8       30.09R
WACO           SUNNY     59  38  45 N16       30.08R
FORT WORTH     MOSUNNY   59  35  40 NW16G28   30.04R
WICHITA FALLS  SUNNY     57  30  35 NW20G26   30.10F
LUBBOCK        MOSUNNY   51  28  41 N15       30.23R
EL PASO        PTSUNNY   48  24  39 N10       30.27S
$$

...MARINE OBSERVATIONS...

STATION/POSITION TIME  SKY/WX   TEMP    WIND        PRES    VSBY  WAVE   SWELL
                                AIR SEA DIR/SP/G                  HT/PER HT/PER
                 (UTC)          (F)     (DEG/KT/KT) (MB)    (MI)  (FT/S) (FT/S)
PORT ARANSAS     1700            56 54  250/ 12/ 13 1021.2R
BUOY 90 E PORT A 1700            64 69  270/ 17/ 19 1019.5R         4/ 6
BUOY 45 SE BAFFI 1700            60 66  230/ 14/ 16 1020.2F         2/ 4
BUOY 200 E PT IS 1700            64 72  270/ 10/ 12 1020.4R         2/ 5   2/ 5
BUOY 15 E GALVES 1700            55 54  240/ 17/ 21 1017.2R         3/ 5
$$



USA.gov is the U.S. government's official web portal to all federal, state and local government web resources and services.